This is the latest recevied weather packets stored in our database for station/object IK0TIX. If no packets are shown the sender has not sent any weather packets the latest 10 day(s).
| Time | Temp. | Humidity | Pressure | Rain* | Wind** | Luminosity | Snow |
|---|---|---|---|---|---|---|---|
| 1778019588 | 17.78° C | 70% | 1015.8 hPa | 0 mm | - | - | - |
| 1778018974 | 17.78° C | 70% | 1016 hPa | 0 mm | - | - | - |
| 1778015977 | 17.78° C | 69% | 1016.2 hPa | 0 mm | - | - | - |
| 1778013905 | 18.33° C | 69% | 1016.4 hPa | 0 mm | - | - | - |
| 1778013599 | 18.33° C | 69% | 1016.4 hPa | 0 mm | - | - | - |
| 1778011177 | 18.33° C | 68% | 1016.5 hPa | 0 mm | - | - | - |
| 1778010900 | 18.33° C | 69% | 1016.5 hPa | 0 mm | - | - | - |
| 1778009706 | 18.33° C | 70% | 1016.3 hPa | 0 mm | - | - | - |
| 1778006676 | 18.89° C | 69% | 1015.9 hPa | 0 mm | - | - | - |
| 1778005775 | 18.89° C | 70% | 1015.8 hPa | 0 mm | - | - | - |
| 1778004906 | 19.44° C | 70% | 1015.8 hPa | 0 mm | - | - | - |
| 1778003377 | 19.44° C | 68% | 1015.7 hPa | 0 mm | - | - | - |
| 1778001576 | 20° C | 66% | 1015.7 hPa | 0 mm | - | - | - |
| 1777999171 | 20.56° C | 64% | 1015.9 hPa | 0 mm | - | - | - |
| 1777998897 | 21.11° C | 63% | 1015.9 hPa | 0 mm | - | - | - |
| 1777998574 | 21.11° C | 63% | 1015.9 hPa | 0 mm | - | - | - |
| 1777997689 | 21.11° C | 62% | 1016 hPa | 0 mm | - | - | - |
| 1777996485 | 21.11° C | 61% | 1016 hPa | 0 mm | - | - | - |
| 1777995901 | 21.67° C | 60% | 1016.2 hPa | 0 mm | - | - | - |
| 1777995270 | 21.67° C | 61% | 1016.1 hPa | 0 mm | - | - | - |
| 1777992596 | 21.11° C | 63% | 1016 hPa | 0 mm | - | - | - |
| 1777991992 | 21.11° C | 63% | 1016.1 hPa | 0 mm | - | - | - |
| 1777990785 | 21.11° C | 63% | 1016.3 hPa | 0 mm | - | - | - |
| 1777988700 | 20.56° C | 62% | 1016.6 hPa | 0 mm | - | - | - |
| 1777987538 | 21.11° C | 61% | 1016.5 hPa | 0 mm | - | - | - |
* Rain latest hour (hover to see other rain measurements)
** Current wind speed in m/s (hover to see current wind gust speed)